Weather History for Pipestone, MN

Change the Weather History Date:

Wednesday, February 6, 2013

  Actual Average Record
Temperature  
Mean Temperature 28 °F -  
Max Temperature 39 °F 27 °F 51 °F (2002)
Min Temperature 17 °F 10 °F -11 °F (2014)
Degree Days  
Heating Degree Days 37    
Moisture  
Dew Point 27 °F    
Average Humidity 89    
Maximum Humidity 100    
Minimum Humidity 75    
Precipitation  
Precipitation 0.00 in - - ()
Sea Level Pressure  
Sea Level Pressure 29.87 in    
Wind  
Wind Speed 9 mph (SSW)    
Max Wind Speed 23 mph    
Max Gust Speed 31 mph    
Visibility 9 miles    
Events      
Averages and records for this station are not official NWS values.
T = Trace of Precipitation, MM = Missing Value Source: NWS Daily Summary

Daily Weather History Graph

Daily Weather History Graph

Search for Another Location

Airport:

Trip Planner

Search our weather history database for the weather conditions in past years. The results will help you decide how hot, cold, wet, or windy it might be!

Date:

Astronomy

Feb. 06, 2013 Rise Set
Actual Time 7:36 AM CST 5:42 PM CST
Civil Twilight 7:06 AM CST 6:13 PM CST
Nautical Twilight 6:31 AM CST 6:47 PM CST
Astronomical Twilight 5:58 AM CST 7:21 PM CST
Moon 4:25 AM CST (2/6) 1:58 PM CST (2/6)
Length of Visible Light 11h 07m
Length of Day
10h 06m
Waning Crescent, 17% of the Moon is Illuminated
Feb 6
Waning Crescent
Feb 10
New
Feb 17
First Quarter
Feb 25
Full
Mar 4
Last Quarter

Hourly Weather History & Observations

Time (CST) Temp. Windchill Dew Point Humidity Pressure Visibility Wind Dir Wind Speed Gust Speed Precip Events Conditions
12:13 AM 19.4 °F 12.8 °F 17.6 °F 93% 30.00 in 7.0 mi SE 4.6 mph - N/A   Clear
12:33 AM 19.4 °F 11.5 °F 17.6 °F 93% 29.99 in 7.0 mi SE 5.8 mph - N/A   Clear
12:53 AM 17.6 °F 9.3 °F 17.6 °F 100% 29.99 in 5.0 mi ESE 5.8 mph - N/A   Clear
1:13 AM 17.6 °F 8.2 °F 17.6 °F 100% 29.98 in 7.0 mi SE 6.9 mph - N/A   Clear
1:34 AM 17.6 °F 9.3 °F 17.6 °F 100% 29.98 in 7.0 mi ESE 5.8 mph - N/A   Mostly Cloudy
1:53 AM 19.4 °F 12.8 °F 17.6 °F 93% 29.98 in 7.0 mi South 4.6 mph - N/A   Overcast
2:13 AM 21.2 °F 14.9 °F 19.4 °F 93% 29.99 in 7.0 mi South 4.6 mph - N/A   Overcast
2:34 AM 23.0 °F 13.9 °F 21.2 °F 93% 29.99 in 7.0 mi South 8.1 mph - N/A   Overcast
2:53 AM 23.0 °F 13.9 °F 21.2 °F 93% 29.98 in 10.0 mi South 8.1 mph - N/A   Overcast
3:13 AM 24.8 °F 16.1 °F 21.2 °F 86% 29.97 in 10.0 mi SSE 8.1 mph - N/A   Overcast
3:33 AM 23.0 °F 11.7 °F 21.2 °F 93% 29.97 in 7.0 mi South 11.5 mph - N/A   Overcast
3:53 AM 23.0 °F 13.9 °F 21.2 °F 93% 29.97 in 7.0 mi SSE 8.1 mph - N/A   Overcast
4:13 AM 23.0 °F 12.4 °F 21.2 °F 93% 29.95 in 7.0 mi SSE 10.4 mph - N/A   Overcast
4:33 AM 21.2 °F 10.9 °F 21.2 °F 100% 29.95 in 7.0 mi SSE 9.2 mph - N/A   Overcast
4:53 AM 21.2 °F 10.9 °F 21.2 °F 100% 29.95 in 7.0 mi SSE 9.2 mph - N/A   Overcast
5:13 AM 21.2 °F 10.1 °F 21.2 °F 100% 29.95 in 7.0 mi SSE 10.4 mph - N/A   Overcast
5:33 AM 23.0 °F 12.4 °F 21.2 °F 93% 29.95 in 7.0 mi SSE 10.4 mph - N/A   Overcast
5:53 AM 23.0 °F 13.1 °F 21.2 °F 93% 29.94 in 7.0 mi SSE 9.2 mph - N/A   Overcast
6:13 AM 23.0 °F 14.7 °F 21.2 °F 93% 29.93 in 7.0 mi SSE 6.9 mph - N/A   Overcast
6:33 AM 23.0 °F 11.7 °F 21.2 °F 93% 29.92 in 7.0 mi SSE 11.5 mph - N/A   Overcast
6:53 AM 24.8 °F 12.4 °F 21.2 °F 86% 29.90 in 7.0 mi SSE 15.0 mph - N/A   Mostly Cloudy
7:13 AM 24.8 °F 12.9 °F 21.2 °F 86% 29.89 in 7.0 mi SSE 13.8 mph 19.6 mph N/A   Mostly Cloudy
7:33 AM 24.8 °F 11.9 °F 23.0 °F 93% 29.88 in 7.0 mi SSE 16.1 mph - N/A   Scattered Clouds
7:53 AM 24.8 °F 12.4 °F 23.0 °F 93% 29.88 in 7.0 mi SSE 15.0 mph - N/A   Clear
8:13 AM 26.6 °F 13.4 °F 23.0 °F 86% 29.87 in 10.0 mi South 18.4 mph - N/A   Clear
8:33 AM 26.6 °F 13.8 °F 24.8 °F 93% 29.87 in 10.0 mi SSE 17.3 mph 23.0 mph N/A   Clear
8:54 AM 26.6 °F 13.4 °F 24.8 °F 93% 29.85 in 10.0 mi South 18.4 mph 25.3 mph N/A   Clear
9:13 AM 28.4 °F 15.4 °F 24.8 °F 86% 29.84 in 10.0 mi South 19.6 mph 27.6 mph N/A   Clear
9:33 AM 28.4 °F 14.4 °F 26.6 °F 93% 29.83 in 10.0 mi South 23.0 mph 31.1 mph N/A   Clear
9:54 AM 30.2 °F 17.1 °F 26.6 °F 86% 29.83 in 10.0 mi South 21.9 mph 27.6 mph N/A   Clear
10:13 AM 30.2 °F 19.3 °F 26.6 °F 86% 29.84 in 10.0 mi South 15.0 mph - N/A   Clear
10:33 AM 30.2 °F 18.5 °F 28.4 °F 93% 29.83 in 10.0 mi South 17.3 mph - N/A   Clear
10:53 AM 33.8 °F 23.2 °F 28.4 °F 81% 29.83 in 10.0 mi South 17.3 mph 24.2 mph N/A   Clear
11:13 AM 33.8 °F 23.5 °F 30.2 °F 87% 29.83 in 10.0 mi SSW 16.1 mph - N/A   Clear
11:34 AM 33.8 °F 23.5 °F 30.2 °F 87% 29.83 in 10.0 mi SSW 16.1 mph - N/A   Clear
11:53 AM 35.6 °F 25.5 °F 30.2 °F 81% 29.82 in 10.0 mi SSW 17.3 mph 21.9 mph N/A   Clear
12:13 PM 35.6 °F 24.2 °F 30.2 °F 81% 29.80 in 10.0 mi SSW 21.9 mph 25.3 mph N/A   Clear
12:33 PM 37.4 °F 28.2 °F 30.2 °F 75% 29.79 in 10.0 mi SSW 16.1 mph 19.6 mph N/A   Clear
12:53 PM 37.4 °F 28.2 °F 32.0 °F 81% 29.79 in 10.0 mi SSW 16.1 mph - N/A   Clear
1:13 PM 37.4 °F 29.3 °F 32.0 °F 81% 29.79 in 10.0 mi SW 12.7 mph - N/A   Clear
1:33 PM 39.2 °F 32.0 °F 32.0 °F 75% 29.79 in 10.0 mi SW 11.5 mph - N/A   Clear
1:53 PM 39.2 °F 32.0 °F 32.0 °F 75% 29.79 in 10.0 mi SW 11.5 mph - N/A   Clear
2:13 PM 39.2 °F 32.5 °F 32.0 °F 75% 29.80 in 10.0 mi WSW 10.4 mph - N/A   Clear
2:33 PM 39.2 °F 33.6 °F 33.8 °F 81% 29.79 in 10.0 mi SW 8.1 mph - N/A   Clear
2:53 PM 37.4 °F 31.4 °F 33.8 °F 87% 29.78 in 10.0 mi SW 8.1 mph - N/A   Clear
3:13 PM 37.4 °F 32.1 °F 33.8 °F 87% 29.78 in 10.0 mi SW 6.9 mph - N/A   Clear
3:33 PM 37.4 °F 32.1 °F 33.8 °F 87% 29.79 in 10.0 mi SW 6.9 mph - N/A   Clear
3:53 PM 37.4 °F 33.8 °F 33.8 °F 87% 29.79 in 10.0 mi SW 4.6 mph - N/A   Clear
4:13 PM 37.4 °F 33.8 °F 33.8 °F 87% 29.79 in 10.0 mi SSW 4.6 mph - N/A   Clear
4:34 PM 37.4 °F 32.8 °F 33.8 °F 87% 29.80 in 10.0 mi SW 5.8 mph - N/A   Clear
4:53 PM 35.6 °F 31.7 °F 33.8 °F 93% 29.80 in 10.0 mi West 4.6 mph - N/A   Clear
5:13 PM 35.6 °F 31.7 °F 33.8 °F 93% 29.81 in 10.0 mi WSW 4.6 mph - N/A   Clear
5:34 PM 35.6 °F 32.8 °F 33.8 °F 93% 29.81 in 10.0 mi WSW 3.5 mph - N/A   Clear
5:53 PM 35.6 °F - 32.0 °F 87% 29.81 in 10.0 mi Calm Calm - N/A   Clear
6:13 PM 35.6 °F 31.7 °F 33.8 °F 93% 29.82 in 10.0 mi SW 4.6 mph - N/A   Clear
6:34 PM 35.6 °F 32.8 °F 33.8 °F 93% 29.83 in 10.0 mi WSW 3.5 mph - N/A   Scattered Clouds
6:53 PM 35.6 °F - 32.0 °F 87% 29.84 in 10.0 mi Calm Calm - N/A   Clear
7:13 PM 35.6 °F 32.8 °F 32.0 °F 87% 29.84 in 10.0 mi WSW 3.5 mph - N/A   Clear
7:34 PM 33.8 °F - 32.0 °F 93% 29.86 in 10.0 mi Calm Calm - N/A   Clear
7:53 PM 35.6 °F - 32.0 °F 87% 29.86 in 10.0 mi Calm Calm - N/A   Clear
8:13 PM 35.6 °F 30.7 °F 32.0 °F 87% 29.87 in 10.0 mi WNW 5.8 mph - N/A   Clear
8:34 PM 35.6 °F 32.8 °F 32.0 °F 87% 29.87 in 10.0 mi NW 3.5 mph - N/A   Clear
8:53 PM 35.6 °F 31.7 °F 32.0 °F 87% 29.87 in 10.0 mi NNW 4.6 mph - N/A   Clear
9:13 PM 35.6 °F - 32.0 °F 87% 29.88 in 10.0 mi Calm Calm - N/A   Clear
9:33 PM 33.8 °F 29.6 °F 30.2 °F 87% 29.88 in 10.0 mi NNW 4.6 mph - N/A   Clear
9:53 PM 33.8 °F 30.8 °F 30.2 °F 87% 29.89 in 10.0 mi NNW 3.5 mph - N/A   Scattered Clouds
10:13 PM 33.8 °F 27.7 °F 30.2 °F 87% 29.89 in 10.0 mi NW 6.9 mph - N/A   Mostly Cloudy
10:33 PM 33.8 °F 27.7 °F 30.2 °F 87% 29.90 in 10.0 mi NNW 6.9 mph - N/A   Mostly Cloudy
11:13 PM 32.0 °F 27.5 °F 30.2 °F 93% 29.90 in 10.0 mi North 4.6 mph - N/A   Scattered Clouds
11:33 PM 30.2 °F 25.4 °F 30.2 °F 100% 29.91 in 7.0 mi NNW 4.6 mph - N/A   Scattered Clouds
11:54 PM 30.2 °F 25.4 °F 28.4 °F 93% 29.92 in 7.0 mi North 4.6 mph - N/A   Scattered Clouds